Time,TemperatureF,DewpointF,PressureIn,WindDirection,WindDirectionDegrees,WindSpeedMPH,WindSpeedGustMPH,Humidity,HourlyPrecipIn,Conditions,Clouds,dailyrainin,SoftwareType,DateUTC
2013-01-28 00:03:00,44.4,32.2,30.37,NE,45,0.0,0.0,62,0.00,,,0.00,WUHU21623XXSP,2013-01-28 05:03:00,
2013-01-28 00:11:00,44.4,32.2,30.35,NE,45,0.0,0.0,62,0.00,,,0.00,WUHU21623XXSP,2013-01-28 05:11:00,
2013-01-28 00:16:00,43.9,31.7,30.35,NE,45,0.0,0.0,62,0.00,,,0.00,WUHU21623XXSP,2013-01-28 05:16:00,
2013-01-28 00:21:00,43.7,31.5,30.35,NE,45,0.0,0.0,62,0.00,,,0.00,WUHU21623XXSP,2013-01-28 05:21:00,
2013-01-28 00:26:00,43.5,31.3,30.35,NE,45,0.0,0.0,62,0.00,,,0.00,WUHU21623XXSP,2013-01-28 05:26:00,
2013-01-28 00:31:00,43.2,31.2,30.35,NE,45,0.0,0.0,63,0.00,,,0.00,WUHU21623XXSP,2013-01-28 05:31:00,
2013-01-28 00:36:00,43.0,31.4,30.35,NE,45,0.0,0.0,63,0.00,,,0.00,WUHU21623XXSP,2013-01-28 05:36:00,
2013-01-28 00:41:00,43.0,31.4,30.35,NE,45,0.0,0.0,63,0.00,,,0.00,WUHU21623XXSP,2013-01-28 05:41:00,
2013-01-28 00:46:00,43.0,31.2,30.35,NE,45,0.0,0.0,63,0.00,,,0.00,WUHU21623XXSP,2013-01-28 05:46:00,
2013-01-28 00:51:00,43.0,31.2,30.35,NE,45,0.0,0.0,63,0.00,,,0.00,WUHU21623XXSP,2013-01-28 05:51:00,
2013-01-28 00:56:00,43.0,31.2,30.35,NE,45,0.0,0.0,63,0.00,,,0.00,WUHU21623XXSP,2013-01-28 05:56:00,
2013-01-28 01:01:00,43.0,31.2,30.35,NE,45,0.0,0.0,63,0.00,,,0.00,WUHU21623XXSP,2013-01-28 06:01:00,
2013-01-28 01:07:00,43.0,31.2,30.35,NE,45,0.0,0.0,63,0.00,,,0.00,WUHU21623XXSP,2013-01-28 06:07:00,
2013-01-28 01:12:00,43.0,30.8,30.35,NE,45,0.0,0.0,62,0.00,,,0.00,WUHU21623XXSP,2013-01-28 06:12:00,
2013-01-28 01:17:00,43.0,31.2,30.35,NE,45,0.0,0.0,63,0.00,,,0.00,WUHU21623XXSP,2013-01-28 06:17:00,
2013-01-28 01:22:00,43.0,31.2,30.35,NE,45,0.0,0.0,63,0.00,,,0.00,WUHU21623XXSP,2013-01-28 06:22:00,
2013-01-28 01:27:00,43.0,31.2,30.35,NE,45,0.0,0.0,63,0.00,,,0.00,WUHU21623XXSP,2013-01-28 06:27:00,
2013-01-28 01:32:00,43.0,31.2,30.36,NE,45,0.0,0.0,63,0.00,,,0.00,WUHU21623XXSP,2013-01-28 06:32:00,
2013-01-28 01:37:00,43.0,31.2,30.36,NE,45,0.0,0.0,63,0.00,,,0.00,WUHU21623XXSP,2013-01-28 06:37:00,
2013-01-28 01:42:00,43.2,31.4,30.36,NE,45,0.0,0.0,63,0.00,,,0.00,WUHU21623XXSP,2013-01-28 06:42:00,
2013-01-28 01:47:00,43.2,31.4,30.36,NE,45,0.0,0.0,63,0.00,,,0.00,WUHU21623XXSP,2013-01-28 06:47:00,
2013-01-28 01:52:00,43.2,31.4,30.36,NE,45,0.0,0.0,63,0.00,,,0.00,WUHU21623XXSP,2013-01-28 06:52:00,
2013-01-28 01:58:00,43.3,31.6,30.36,NE,45,0.0,0.0,63,0.00,,,0.00,WUHU21623XXSP,2013-01-28 06:58:00,
2013-01-28 02:03:00,43.3,31.6,30.36,NE,45,0.0,0.0,63,0.00,,,0.00,WUHU21623XXSP,2013-01-28 07:03:00,
2013-01-28 02:08:00,43.3,31.6,30.36,NE,45,0.0,0.0,63,0.00,,,0.00,WUHU21623XXSP,2013-01-28 07:08:00,
2013-01-28 02:13:00,43.3,31.6,30.36,NE,45,0.0,0.0,63,0.00,,,0.00,WUHU21623XXSP,2013-01-28 07:13:00,
2013-01-28 02:19:00,43.3,31.6,30.36,NE,45,0.0,0.0,63,0.00,,,0.00,WUHU21623XXSP,2013-01-28 07:19:00,
2013-01-28 02:24:00,43.3,31.6,30.35,NE,45,0.0,0.0,63,0.00,,,0.00,WUHU21623XXSP,2013-01-28 07:24:00,
2013-01-28 02:29:00,43.2,31.4,30.35,NE,45,0.0,0.0,63,0.00,,,0.00,WUHU21623XXSP,2013-01-28 07:29:00,
2013-01-28 02:34:00,43.2,31.4,30.36,NE,45,0.0,0.0,63,0.00,,,0.00,WUHU21623XXSP,2013-01-28 07:34:00,
2013-01-28 02:39:00,43.0,31.2,30.35,NE,45,0.0,0.0,63,0.00,,,0.00,WUHU21623XXSP,2013-01-28 07:39:00,
2013-01-28 02:44:00,43.0,31.2,30.35,NE,45,0.0,0.0,63,0.00,,,0.00,WUHU21623XXSP,2013-01-28 07:44:00,
2013-01-28 02:49:00,42.8,31.0,30.36,NE,45,0.0,0.0,63,0.00,,,0.00,WUHU21623XXSP,2013-01-28 07:49:00,
2013-01-28 02:54:00,42.6,30.8,30.35,NE,45,0.0,0.0,63,0.00,,,0.00,WUHU21623XXSP,2013-01-28 07:54:00,
2013-01-28 02:59:00,42.6,30.8,30.35,NE,45,0.0,0.0,63,0.00,,,0.00,WUHU21623XXSP,2013-01-28 07:59:00,
2013-01-28 03:04:00,42.6,30.8,30.36,NE,45,0.0,0.0,63,0.00,,,0.00,WUHU21623XXSP,2013-01-28 08:04:00,
2013-01-28 03:09:00,42.6,30.8,30.36,NE,45,0.0,0.0,63,0.00,,,0.00,WUHU21623XXSP,2013-01-28 08:09:00,
2013-01-28 03:14:00,42.6,30.8,30.35,NE,45,0.0,0.0,62,0.00,,,0.00,WUHU21623XXSP,2013-01-28 08:14:00,
2013-01-28 03:19:00,42.4,30.3,30.35,NE,45,0.0,0.0,62,0.00,,,0.00,WUHU21623XXSP,2013-01-28 08:19:00,
2013-01-28 03:24:00,42.4,30.3,30.35,NE,45,0.0,0.0,62,0.00,,,0.00,WUHU21623XXSP,2013-01-28 08:24:00,
2013-01-28 03:29:00,42.4,30.3,30.35,NE,45,0.0,0.0,62,0.00,,,0.00,WUHU21623XXSP,2013-01-28 08:29:00,
2013-01-28 03:34:00,42.1,30.3,30.35,NE,45,0.0,0.0,63,0.00,,,0.00,WUHU21623XXSP,2013-01-28 08:34:00,
2013-01-28 03:39:00,42.1,30.3,30.34,NE,45,0.0,0.0,63,0.00,,,0.00,WUHU21623XXSP,2013-01-28 08:39:00,
2013-01-28 03:44:00,42.1,30.3,30.34,NE,45,0.0,0.0,63,0.00,,,0.00,WUHU21623XXSP,2013-01-28 08:44:00,
2013-01-28 03:49:00,42.1,30.3,30.34,NE,45,0.0,0.0,63,0.00,,,0.00,WUHU21623XXSP,2013-01-28 08:49:00,
2013-01-28 03:54:00,42.1,30.3,30.34,NE,45,0.0,0.0,63,0.00,,,0.00,WUHU21623XXSP,2013-01-28 08:54:00,
2013-01-28 03:59:00,42.1,30.3,30.35,NE,45,0.0,0.0,63,0.00,,,0.00,WUHU21623XXSP,2013-01-28 08:59:00,
2013-01-28 04:04:00,42.1,30.3,30.35,NE,45,0.0,0.0,63,0.00,,,0.00,WUHU21623XXSP,2013-01-28 09:04:00,
2013-01-28 04:09:00,42.4,30.7,30.35,NE,45,0.0,0.0,63,0.00,,,0.00,WUHU21623XXSP,2013-01-28 09:09:00,
2013-01-28 04:14:00,42.4,31.1,30.35,NE,45,0.0,0.0,64,0.00,,,0.00,WUHU21623XXSP,2013-01-28 09:14:00,
2013-01-28 04:20:00,42.4,30.7,30.35,NE,45,0.0,0.0,63,0.00,,,0.00,WUHU21623XXSP,2013-01-28 09:20:00,
2013-01-28 04:25:00,42.6,30.8,30.35,NE,45,0.0,0.0,63,0.00,,,0.00,WUHU21623XXSP,2013-01-28 09:25:00,
2013-01-28 04:30:00,42.6,30.8,30.35,NE,45,0.0,0.0,63,0.00,,,0.00,WUHU21623XXSP,2013-01-28 09:30:00,
2013-01-28 04:35:00,42.8,31.0,30.35,NE,45,0.0,0.0,63,0.00,,,0.00,WUHU21623XXSP,2013-01-28 09:35:00,
2013-01-28 04:40:00,43.0,31.6,30.35,NE,45,0.0,0.0,64,0.00,,,0.00,WUHU21623XXSP,2013-01-28 09:40:00,
2013-01-28 04:45:00,43.0,31.6,30.35,NE,45,0.0,0.0,64,0.00,,,0.00,WUHU21623XXSP,2013-01-28 09:45:00,
2013-01-28 04:50:00,43.0,31.6,30.36,NE,45,0.0,0.0,64,0.00,,,0.00,WUHU21623XXSP,2013-01-28 09:50:00,
2013-01-28 04:55:00,43.0,31.6,30.35,NE,45,0.0,0.0,64,0.00,,,0.00,WUHU21623XXSP,2013-01-28 09:55:00,
2013-01-28 05:00:00,43.0,31.2,30.35,NE,45,0.0,0.0,63,0.00,,,0.00,WUHU21623XXSP,2013-01-28 10:00:00,
2013-01-28 05:05:00,43.2,31.4,30.35,NE,45,0.0,0.0,63,0.00,,,0.00,WUHU21623XXSP,2013-01-28 10:05:00,
2013-01-28 05:10:00,43.2,31.4,30.35,NE,45,0.0,0.0,63,0.00,,,0.00,WUHU21623XXSP,2013-01-28 10:10:00,
2013-01-28 05:15:00,43.2,31.4,30.36,NE,45,0.0,0.0,63,0.00,,,0.00,WUHU21623XXSP,2013-01-28 10:15:00,
2013-01-28 05:20:00,43.3,31.6,30.35,NE,45,0.0,0.0,63,0.00,,,0.00,WUHU21623XXSP,2013-01-28 10:20:00,
2013-01-28 05:25:00,43.3,31.6,30.35,NE,45,0.0,0.0,63,0.00,,,0.00,WUHU21623XXSP,2013-01-28 10:25:00,
2013-01-28 05:30:00,43.3,31.6,30.35,NE,45,0.0,0.0,63,0.00,,,0.00,WUHU21623XXSP,2013-01-28 10:30:00,
2013-01-28 05:35:00,43.3,31.6,30.35,NE,45,0.0,0.0,63,0.00,,,0.00,WUHU21623XXSP,2013-01-28 10:35:00,
2013-01-28 05:40:00,43.3,31.6,30.35,NE,45,0.0,0.0,63,0.00,,,0.00,WUHU21623XXSP,2013-01-28 10:40:00,
2013-01-28 05:45:00,43.5,31.7,30.35,NE,45,0.0,0.0,63,0.00,,,0.00,WUHU21623XXSP,2013-01-28 10:45:00,
2013-01-28 05:50:00,43.5,31.7,30.35,NE,45,0.0,0.0,63,0.00,,,0.00,WUHU21623XXSP,2013-01-28 10:50:00,
2013-01-28 05:55:00,43.5,31.7,30.35,NE,45,0.0,0.0,63,0.00,,,0.00,WUHU21623XXSP,2013-01-28 10:55:00,
2013-01-28 06:00:00,43.7,31.9,30.35,NE,45,0.0,0.0,63,0.00,,,0.00,WUHU21623XXSP,2013-01-28 11:00:00,
2013-01-28 06:05:00,43.5,32.1,30.35,NE,45,0.0,0.0,64,0.00,,,0.00,WUHU21623XXSP,2013-01-28 11:05:00,
2013-01-28 06:10:00,43.7,32.3,30.35,NE,45,0.0,0.0,64,0.00,,,0.00,WUHU21623XXSP,2013-01-28 11:10:00,
2013-01-28 06:15:00,43.7,32.3,30.35,NE,45,0.0,0.0,64,0.00,,,0.00,WUHU21623XXSP,2013-01-28 11:15:00,
2013-01-28 06:20:00,43.7,32.3,30.35,NE,45,0.0,0.0,64,0.00,,,0.00,WUHU21623XXSP,2013-01-28 11:20:00,
2013-01-28 06:25:00,43.7,32.3,30.35,NE,45,0.0,0.0,64,0.00,,,0.00,WUHU21623XXSP,2013-01-28 11:25:00,
2013-01-28 06:30:00,43.7,32.3,30.35,NE,45,0.0,0.0,64,0.00,,,0.00,WUHU21623XXSP,2013-01-28 11:30:00,
2013-01-28 06:35:00,43.7,32.3,30.35,NE,45,0.0,0.0,64,0.00,,,0.00,WUHU21623XXSP,2013-01-28 11:35:00,
2013-01-28 06:42:00,43.7,32.3,30.35,NE,45,0.0,0.0,64,0.00,,,0.00,WUHU21623XXSP,2013-01-28 11:42:00,
2013-01-28 06:47:00,43.7,32.3,30.35,NE,45,0.0,0.0,64,0.00,,,0.00,WUHU21623XXSP,2013-01-28 11:47:00,
2013-01-28 06:53:00,43.5,32.5,30.35,NE,45,0.0,0.0,65,0.00,,,0.00,WUHU21623XXSP,2013-01-28 11:53:00,
2013-01-28 06:58:00,43.5,32.1,30.35,NE,45,0.0,0.0,64,0.00,,,0.00,WUHU21623XXSP,2013-01-28 11:58:00,
2013-01-28 07:03:00,43.5,32.5,30.35,NE,45,0.0,0.0,65,0.00,,,0.00,WUHU21623XXSP,2013-01-28 12:03:00,
2013-01-28 07:08:00,43.5,32.5,30.35,NE,45,0.0,0.0,65,0.00,,,0.00,WUHU21623XXSP,2013-01-28 12:08:00,
2013-01-28 07:13:00,43.5,32.5,30.35,NE,45,0.0,0.0,65,0.00,,,0.00,WUHU21623XXSP,2013-01-28 12:13:00,
2013-01-28 07:18:00,43.5,32.5,30.36,NE,45,0.0,0.0,65,0.00,,,0.00,WUHU21623XXSP,2013-01-28 12:18:00,
2013-01-28 07:24:00,43.5,32.5,30.36,NE,45,0.0,0.0,65,0.00,,,0.00,WUHU21623XXSP,2013-01-28 12:24:00,
2013-01-28 07:29:00,43.5,32.5,30.36,NE,45,0.0,0.0,65,0.00,,,0.00,WUHU21623XXSP,2013-01-28 12:29:00,
2013-01-28 07:34:00,43.5,32.9,30.36,NE,45,0.0,0.0,66,0.00,,,0.00,WUHU21623XXSP,2013-01-28 12:34:00,
2013-01-28 07:39:00,43.5,32.9,30.36,NE,45,0.0,0.0,66,0.00,,,0.00,WUHU21623XXSP,2013-01-28 12:39:00,
2013-01-28 07:45:00,43.5,32.9,30.36,NE,45,0.0,0.0,66,0.00,,,0.00,WUHU21623XXSP,2013-01-28 12:45:00,
2013-01-28 07:50:00,43.5,32.9,30.36,NE,45,0.0,0.0,66,0.00,,,0.00,WUHU21623XXSP,2013-01-28 12:50:00,
2013-01-28 07:55:00,43.7,33.1,30.36,NE,45,0.0,0.0,66,0.00,,,0.00,WUHU21623XXSP,2013-01-28 12:55:00,
2013-01-28 08:00:00,43.5,33.1,30.36,NE,45,0.0,0.0,66,0.00,,,0.00,WUHU21623XXSP,2013-01-28 13:00:00,
2013-01-28 08:05:00,43.5,32.9,30.36,NE,45,0.0,0.0,66,0.00,,,0.00,WUHU21623XXSP,2013-01-28 13:05:00,
2013-01-28 08:10:00,43.9,33.4,30.36,NE,45,0.0,0.0,67,0.00,,,0.00,WUHU21623XXSP,2013-01-28 13:10:00,
2013-01-28 08:15:00,43.9,33.6,30.36,NE,45,0.0,0.0,67,0.00,,,0.00,WUHU21623XXSP,2013-01-28 13:15:00,
2013-01-28 08:20:00,43.9,33.6,30.36,NE,45,0.0,0.0,67,0.00,,,0.00,WUHU21623XXSP,2013-01-28 13:20:00,
2013-01-28 08:25:00,44.1,33.8,30.36,NE,45,0.0,0.0,67,0.00,,,0.00,WUHU21623XXSP,2013-01-28 13:25:00,
2013-01-28 08:30:00,44.1,33.8,30.36,NE,45,0.0,0.0,67,0.00,,,0.00,WUHU21623XXSP,2013-01-28 13:30:00,
2013-01-28 08:35:00,44.4,34.1,30.36,NE,45,0.0,0.0,67,0.00,,,0.00,WUHU21623XXSP,2013-01-28 13:35:00,
2013-01-28 08:40:00,44.6,34.1,30.36,NE,45,0.0,0.0,67,0.00,,,0.00,WUHU21623XXSP,2013-01-28 13:40:00,
2013-01-28 08:46:00,44.8,34.4,30.36,NE,45,0.0,0.0,67,0.00,,,0.00,WUHU21623XXSP,2013-01-28 13:46:00,
2013-01-28 08:51:00,45.0,34.3,30.35,NE,45,0.0,0.0,66,0.00,,,0.00,WUHU21623XXSP,2013-01-28 13:51:00,
2013-01-28 08:56:00,45.0,34.3,30.35,NE,45,0.0,0.0,66,0.00,,,0.00,WUHU21623XXSP,2013-01-28 13:56:00,
2013-01-28 09:01:00,45.1,34.4,30.35,NE,45,0.0,0.0,66,0.00,,,0.00,WUHU21623XXSP,2013-01-28 14:01:00,
2013-01-28 09:06:00,45.3,34.6,30.35,NE,45,0.0,0.0,66,0.00,,,0.00,WUHU21623XXSP,2013-01-28 14:06:00,
2013-01-28 09:11:00,45.3,34.6,30.35,NE,45,0.0,0.0,66,0.00,,,0.00,WUHU21623XXSP,2013-01-28 14:11:00,
2013-01-28 09:16:00,45.5,34.4,30.36,NE,45,0.0,0.0,65,0.00,,,0.00,WUHU21623XXSP,2013-01-28 14:16:00,
2013-01-28 09:21:00,45.7,34.4,30.36,NE,45,0.0,0.0,65,0.00,,,0.00,WUHU21623XXSP,2013-01-28 14:21:00,
2013-01-28 09:26:00,45.7,34.6,30.36,NE,45,0.0,0.0,65,0.00,,,0.00,WUHU21623XXSP,2013-01-28 14:26:00,
2013-01-28 09:31:00,45.7,34.2,30.36,NE,45,0.0,0.0,64,0.00,,,0.00,WUHU21623XXSP,2013-01-28 14:31:00,
2013-01-28 09:37:00,46.0,34.3,30.36,NE,45,0.0,0.0,65,0.00,,,0.00,WUHU21623XXSP,2013-01-28 14:37:00,
2013-01-28 09:42:00,46.0,34.5,30.36,NE,45,0.0,0.0,64,0.00,,,0.00,WUHU21623XXSP,2013-01-28 14:42:00,
2013-01-28 09:47:00,46.0,34.7,30.36,NE,45,0.0,0.0,64,0.00,,,0.00,WUHU21623XXSP,2013-01-28 14:47:00,
2013-01-28 09:52:00,46.2,34.3,30.35,NE,45,0.0,0.0,64,0.00,,,0.00,WUHU21623XXSP,2013-01-28 14:52:00,
2013-01-28 09:57:00,46.2,34.7,30.36,NE,45,0.0,0.0,63,0.00,,,0.00,WUHU21623XXSP,2013-01-28 14:57:00,
2013-01-28 10:02:00,46.6,34.4,30.35,NE,45,0.0,0.0,63,0.00,,,0.00,WUHU21623XXSP,2013-01-28 15:02:00,
2013-01-28 10:07:00,46.8,34.6,30.35,NE,45,0.0,0.0,63,0.00,,,0.00,WUHU21623XXSP,2013-01-28 15:07:00,
2013-01-28 10:12:00,46.8,34.8,30.36,NE,45,0.0,0.0,63,0.00,,,0.00,WUHU21623XXSP,2013-01-28 15:12:00,
2013-01-28 10:17:00,46.8,35.0,30.35,NE,45,0.0,0.0,63,0.00,,,0.00,WUHU21623XXSP,2013-01-28 15:17:00,
2013-01-28 10:22:00,47.1,35.1,30.35,NE,45,0.0,0.0,63,0.00,,,0.00,WUHU21623XXSP,2013-01-28 15:22:00,
2013-01-28 10:27:00,47.3,35.3,30.35,NE,45,0.0,0.0,63,0.00,,,0.00,WUHU21623XXSP,2013-01-28 15:27:00,
2013-01-28 10:32:00,47.5,35.5,30.35,NE,45,0.0,0.0,63,0.00,,,0.00,WUHU21623XXSP,2013-01-28 15:32:00,
2013-01-28 10:38:00,48.0,35.8,30.35,NE,45,0.0,0.0,63,0.00,,,0.00,WUHU21623XXSP,2013-01-28 15:38:00,
2013-01-28 10:43:00,48.4,36.0,30.35,NE,45,0.0,0.0,62,0.00,,,0.00,WUHU21623XXSP,2013-01-28 15:43:00,
2013-01-28 10:48:00,48.6,36.5,30.35,NE,45,0.0,0.0,63,0.00,,,0.00,WUHU21623XXSP,2013-01-28 15:48:00,
2013-01-28 10:53:00,48.7,36.7,30.35,NE,45,0.0,0.0,63,0.00,,,0.00,WUHU21623XXSP,2013-01-28 15:53:00,
2013-01-28 10:58:00,49.1,37.0,30.35,NE,45,0.0,0.0,63,0.00,,,0.00,WUHU21623XXSP,2013-01-28 15:58:00,
2013-01-28 11:03:00,49.8,37.5,30.35,NE,45,0.0,0.0,63,0.00,,,0.00,WUHU21623XXSP,2013-01-28 16:03:00,
2013-01-28 11:08:00,50.5,38.0,30.35,NE,45,0.0,0.0,62,0.00,,,0.00,WUHU21623XXSP,2013-01-28 16:08:00,
2013-01-28 11:13:00,50.9,38.1,30.35,NE,45,0.0,0.0,62,0.00,,,0.00,WUHU21623XXSP,2013-01-28 16:13:00,
2013-01-28 11:18:00,51.4,38.8,30.35,NE,45,0.0,0.0,62,0.00,,,0.00,WUHU21623XXSP,2013-01-28 16:18:00,
2013-01-28 11:23:00,51.6,38.9,30.35,NE,45,0.0,0.0,62,0.00,,,0.00,WUHU21623XXSP,2013-01-28 16:23:00,
2013-01-28 11:28:00,51.6,38.9,30.35,NE,45,0.0,0.0,62,0.00,,,0.00,WUHU21623XXSP,2013-01-28 16:28:00,
2013-01-28 11:33:00,51.6,38.9,30.35,NE,45,0.0,0.0,62,0.00,,,0.00,WUHU21623XXSP,2013-01-28 16:33:00,
2013-01-28 11:39:00,51.6,38.9,30.35,NE,45,0.0,0.0,62,0.00,,,0.00,WUHU21623XXSP,2013-01-28 16:39:00,
2013-01-28 11:44:00,52.2,39.5,30.35,NE,45,0.0,0.0,62,0.00,,,0.00,WUHU21623XXSP,2013-01-28 16:44:00,
2013-01-28 11:49:00,52.5,39.6,30.34,NE,45,0.0,0.0,61,0.00,,,0.00,WUHU21623XXSP,2013-01-28 16:49:00,
2013-01-28 11:54:00,52.9,39.8,30.34,NE,45,0.0,0.0,61,0.00,,,0.00,WUHU21623XXSP,2013-01-28 16:54:00,
2013-01-28 11:59:00,53.2,40.1,30.34,NE,45,0.0,0.0,61,0.00,,,0.00,WUHU21623XXSP,2013-01-28 16:59:00,
2013-01-28 12:04:00,53.4,40.3,30.33,NE,45,0.0,0.0,61,0.00,,,0.00,WUHU21623XXSP,2013-01-28 17:04:00,
2013-01-28 12:10:00,53.4,40.3,30.33,NE,45,0.0,0.0,61,0.00,,,0.00,WUHU21623XXSP,2013-01-28 17:10:00,
2013-01-28 12:15:00,53.4,40.7,30.33,NE,45,0.0,0.0,62,0.00,,,0.00,WUHU21623XXSP,2013-01-28 17:15:00,
2013-01-28 12:21:00,53.4,40.7,30.32,NE,45,0.0,0.0,62,0.00,,,0.00,WUHU21623XXSP,2013-01-28 17:21:00,
2013-01-28 12:26:00,53.4,40.7,30.32,NE,45,0.0,0.0,62,0.00,,,0.00,WUHU21623XXSP,2013-01-28 17:26:00,
2013-01-28 12:31:00,54.3,41.8,30.31,NE,45,0.0,0.0,63,0.00,,,0.00,WUHU21623XXSP,2013-01-28 17:31:00,
2013-01-28 12:36:00,54.9,42.1,30.31,NE,45,0.0,0.0,63,0.00,,,0.00,WUHU21623XXSP,2013-01-28 17:36:00,
2013-01-28 12:41:00,55.2,42.8,30.31,NE,45,0.0,0.0,63,0.00,,,0.00,WUHU21623XXSP,2013-01-28 17:41:00,
2013-01-28 12:46:00,55.2,42.4,30.31,NE,45,0.0,0.0,61,0.00,,,0.00,WUHU21623XXSP,2013-01-28 17:46:00,
2013-01-28 12:51:00,55.0,41.8,30.30,NE,45,0.0,0.0,61,0.00,,,0.00,WUHU21623XXSP,2013-01-28 17:51:00,
2013-01-28 12:56:00,54.9,41.6,30.30,NE,45,0.0,0.0,61,0.00,,,0.00,WUHU21623XXSP,2013-01-28 17:56:00,
2013-01-28 13:01:00,54.5,41.9,30.30,NE,45,0.0,0.0,62,0.00,,,0.00,WUHU21623XXSP,2013-01-28 18:01:00,
2013-01-28 13:06:00,54.5,41.7,30.30,NE,45,0.0,0.0,63,0.00,,,0.00,WUHU21623XXSP,2013-01-28 18:06:00,
2013-01-28 13:11:00,54.7,42.1,30.30,NE,45,0.0,0.0,65,0.00,,,0.00,WUHU21623XXSP,2013-01-28 18:11:00,
2013-01-28 13:16:00,55.0,43.1,30.29,NE,45,0.0,0.0,65,0.00,,,0.00,WUHU21623XXSP,2013-01-28 18:16:00,
2013-01-28 13:22:00,55.2,43.6,30.29,NE,45,0.0,0.0,65,0.00,,,0.00,WUHU21623XXSP,2013-01-28 18:22:00,
2013-01-28 13:27:00,55.4,44.0,30.29,NE,45,0.0,0.0,66,0.00,,,0.00,WUHU21623XXSP,2013-01-28 18:27:00,
2013-01-28 13:32:00,55.4,44.6,30.28,NE,45,0.0,0.0,67,0.00,,,0.00,WUHU21623XXSP,2013-01-28 18:32:00,
2013-01-28 13:37:00,55.8,44.8,30.28,NE,45,0.0,0.0,67,0.00,,,0.00,WUHU21623XXSP,2013-01-28 18:37:00,
2013-01-28 13:42:00,56.3,45.4,30.28,NE,45,0.0,0.0,67,0.00,,,0.00,WUHU21623XXSP,2013-01-28 18:42:00,
2013-01-28 13:47:00,56.8,46.0,30.27,NE,45,0.0,0.0,67,0.00,,,0.00,WUHU21623XXSP,2013-01-28 18:47:00,
2013-01-28 13:53:00,57.0,46.1,30.27,NE,45,0.0,0.0,67,0.00,,,0.00,WUHU21623XXSP,2013-01-28 18:53:00,
2013-01-28 13:58:00,57.4,46.5,30.27,NE,45,0.0,0.0,67,0.00,,,0.00,WUHU21623XXSP,2013-01-28 18:58:00,
2013-01-28 14:03:00,58.1,47.2,30.26,NE,45,0.0,0.0,67,0.00,,,0.00,WUHU21623XXSP,2013-01-28 19:03:00,
2013-01-28 14:08:00,58.6,47.7,30.26,NE,45,0.0,0.0,67,0.00,,,0.00,WUHU21623XXSP,2013-01-28 19:08:00,
2013-01-28 14:13:00,58.8,47.9,30.27,NE,45,0.0,0.0,67,0.00,,,0.00,WUHU21623XXSP,2013-01-28 19:13:00,
2013-01-28 14:18:00,58.8,47.9,30.26,NE,45,0.0,0.0,67,0.00,,,0.00,WUHU21623XXSP,2013-01-28 19:18:00,
2013-01-28 14:23:00,59.4,48.4,30.26,NE,45,0.0,0.0,67,0.00,,,0.00,WUHU21623XXSP,2013-01-28 19:23:00,
2013-01-28 14:28:00,59.7,48.6,30.26,NE,45,0.0,0.0,67,0.00,,,0.00,WUHU21623XXSP,2013-01-28 19:28:00,
2013-01-28 14:33:00,60.1,48.7,30.26,NNW,337,0.0,0.0,66,0.00,,,0.00,WUHU21623XXSP,2013-01-28 19:33:00,
2013-01-28 14:38:00,60.1,48.7,30.26,NNW,337,0.0,0.0,66,0.00,,,0.00,WUHU21623XXSP,2013-01-28 19:38:00,
2013-01-28 14:43:00,60.1,48.7,30.26,NNW,337,0.0,0.0,66,0.00,,,0.00,WUHU21623XXSP,2013-01-28 19:43:00,
2013-01-28 14:48:00,60.3,48.9,30.26,NNW,337,0.0,0.0,66,0.00,,,0.00,WUHU21623XXSP,2013-01-28 19:48:00,
2013-01-28 14:53:00,60.8,49.1,30.25,West,270,0.0,0.0,66,0.00,,,0.00,WUHU21623XXSP,2013-01-28 19:53:00,
2013-01-28 14:58:00,61.5,49.7,30.25,NW,315,0.0,0.0,65,0.00,,,0.00,WUHU21623XXSP,2013-01-28 19:58:00,
2013-01-28 15:03:00,61.2,49.3,30.26,NW,315,0.0,0.0,65,0.00,,,0.00,WUHU21623XXSP,2013-01-28 20:03:00,
2013-01-28 15:08:00,61.0,49.6,30.26,WNW,292,0.0,0.0,66,0.00,,,0.00,WUHU21623XXSP,2013-01-28 20:08:00,
2013-01-28 15:14:00,60.6,49.2,30.25,WNW,292,0.0,0.0,66,0.00,,,0.00,WUHU21623XXSP,2013-01-28 20:14:00,
2013-01-28 15:19:00,60.4,49.2,30.26,West,270,0.0,0.0,66,0.00,,,0.00,WUHU21623XXSP,2013-01-28 20:19:00,
2013-01-28 15:24:00,59.9,48.7,30.26,West,270,0.0,0.0,66,0.00,,,0.00,WUHU21623XXSP,2013-01-28 20:24:00,
2013-01-28 15:29:00,59.5,48.6,30.26,West,270,0.0,0.0,67,0.00,,,0.00,WUHU21623XXSP,2013-01-28 20:29:00,
2013-01-28 15:35:00,59.2,48.6,30.26,WNW,292,0.0,0.0,68,0.00,,,0.00,WUHU21623XXSP,2013-01-28 20:35:00,
2013-01-28 15:40:00,58.8,48.3,30.26,WNW,292,0.0,0.0,68,0.00,,,0.00,WUHU21623XXSP,2013-01-28 20:40:00,
2013-01-28 15:46:00,58.6,48.1,30.26,WNW,292,0.0,0.0,68,0.00,,,0.00,WUHU21623XXSP,2013-01-28 20:46:00,
2013-01-28 15:51:00,58.5,48.3,30.26,WNW,292,0.0,0.0,69,0.00,,,0.00,WUHU21623XXSP,2013-01-28 20:51:00,
2013-01-28 15:56:00,58.3,48.1,30.26,WNW,292,0.0,0.0,69,0.00,,,0.00,WUHU21623XXSP,2013-01-28 20:56:00,
2013-01-28 16:01:00,58.5,48.3,30.26,WNW,292,0.0,0.0,69,0.00,,,0.00,WUHU21623XXSP,2013-01-28 21:01:00,
2013-01-28 16:06:00,58.5,48.7,30.26,WNW,292,0.0,0.0,70,0.00,,,0.00,WUHU21623XXSP,2013-01-28 21:06:00,
2013-01-28 16:11:00,58.5,48.7,30.26,WNW,292,0.0,0.0,70,0.00,,,0.00,WUHU21623XXSP,2013-01-28 21:11:00,
2013-01-28 16:16:00,58.6,48.9,30.25,WNW,292,0.0,0.0,70,0.00,,,0.00,WUHU21623XXSP,2013-01-28 21:16:00,
2013-01-28 16:21:00,58.6,48.9,30.25,WNW,292,0.0,0.0,70,0.00,,,0.00,WUHU21623XXSP,2013-01-28 21:21:00,
2013-01-28 16:27:00,58.5,49.3,30.25,West,270,0.0,0.0,71,0.00,,,0.00,WUHU21623XXSP,2013-01-28 21:27:00,
2013-01-28 16:32:00,58.3,48.9,30.25,West,270,0.0,0.0,71,0.00,,,0.00,WUHU21623XXSP,2013-01-28 21:32:00,
2013-01-28 16:37:00,58.5,49.1,30.25,West,270,0.0,0.0,71,0.00,,,0.00,WUHU21623XXSP,2013-01-28 21:37:00,
2013-01-28 16:42:00,58.5,49.5,30.25,West,270,0.0,0.0,72,0.00,,,0.00,WUHU21623XXSP,2013-01-28 21:42:00,
2013-01-28 16:47:00,58.6,49.6,30.25,West,270,0.0,0.0,72,0.00,,,0.00,WUHU21623XXSP,2013-01-28 21:47:00,
2013-01-28 16:52:00,58.6,49.8,30.25,West,270,0.0,0.0,72,0.00,,,0.00,WUHU21623XXSP,2013-01-28 21:52:00,
2013-01-28 16:59:00,58.3,49.3,30.25,West,270,0.0,0.0,72,0.00,,,0.00,WUHU21623XXSP,2013-01-28 21:59:00,
2013-01-28 17:04:00,57.9,48.6,30.25,West,270,0.0,0.0,71,0.00,,,0.00,WUHU21623XXSP,2013-01-28 22:04:00,
2013-01-28 17:09:00,57.4,48.6,30.25,West,270,0.0,0.0,72,0.00,,,0.00,WUHU21623XXSP,2013-01-28 22:09:00,
2013-01-28 17:14:00,57.0,48.0,30.25,West,270,0.0,0.0,72,0.00,,,0.00,WUHU21623XXSP,2013-01-28 22:14:00,
2013-01-28 17:19:00,57.0,48.4,30.25,West,270,0.0,0.0,73,0.00,,,0.00,WUHU21623XXSP,2013-01-28 22:19:00,
2013-01-28 17:24:00,56.5,48.2,30.25,West,270,0.0,0.0,73,0.00,,,0.00,WUHU21623XXSP,2013-01-28 22:24:00,
2013-01-28 17:29:00,56.1,47.6,30.25,West,270,0.0,0.0,73,0.00,,,0.00,WUHU21623XXSP,2013-01-28 22:29:00,
2013-01-28 17:34:00,55.8,47.6,30.25,West,270,0.0,0.0,74,0.00,,,0.00,WUHU21623XXSP,2013-01-28 22:34:00,
2013-01-28 17:39:00,55.0,47.2,30.26,West,270,0.0,0.0,75,0.00,,,0.00,WUHU21623XXSP,2013-01-28 22:39:00,
2013-01-28 17:44:00,54.7,46.9,30.26,West,270,0.0,0.0,75,0.00,,,0.00,WUHU21623XXSP,2013-01-28 22:44:00,
2013-01-28 17:49:00,54.3,46.9,30.26,West,270,0.0,0.0,76,0.00,,,0.00,WUHU21623XXSP,2013-01-28 22:49:00,
2013-01-28 17:54:00,53.4,46.0,30.26,West,270,0.0,0.0,76,0.00,,,0.00,WUHU21623XXSP,2013-01-28 22:54:00,
2013-01-28 17:59:00,53.2,46.0,30.26,West,270,0.0,0.0,76,0.00,,,0.00,WUHU21623XXSP,2013-01-28 22:59:00,
2013-01-28 18:04:00,52.9,45.5,30.26,West,270,0.0,0.0,76,0.00,,,0.00,WUHU21623XXSP,2013-01-28 23:04:00,
2013-01-28 18:09:00,52.3,45.2,30.26,West,270,0.0,0.0,76,0.00,,,0.00,WUHU21623XXSP,2013-01-28 23:09:00,
2013-01-28 18:14:00,52.0,45.0,30.26,West,270,0.0,0.0,77,0.00,,,0.00,WUHU21623XXSP,2013-01-28 23:14:00,
2013-01-28 18:19:00,51.6,44.7,30.26,West,270,0.0,0.0,77,0.00,,,0.00,WUHU21623XXSP,2013-01-28 23:19:00,
2013-01-28 18:24:00,51.4,45.0,30.26,West,270,0.0,0.0,78,0.00,,,0.00,WUHU21623XXSP,2013-01-28 23:24:00,
2013-01-28 18:29:00,51.3,45.0,30.26,West,270,0.0,0.0,79,0.00,,,0.00,WUHU21623XXSP,2013-01-28 23:29:00,
2013-01-28 18:34:00,51.1,44.8,30.26,West,270,0.0,0.0,79,0.00,,,0.00,WUHU21623XXSP,2013-01-28 23:34:00,
2013-01-28 18:39:00,50.9,44.6,30.26,West,270,0.0,0.0,79,0.00,,,0.00,WUHU21623XXSP,2013-01-28 23:39:00,
2013-01-28 18:44:00,50.7,44.6,30.26,West,270,0.0,0.0,80,0.00,,,0.00,WUHU21623XXSP,2013-01-28 23:44:00,
2013-01-28 18:49:00,50.7,44.8,30.26,West,270,0.0,0.0,80,0.00,,,0.00,WUHU21623XXSP,2013-01-28 23:49:00,
2013-01-28 18:54:00,50.5,44.6,30.26,West,270,0.0,0.0,80,0.00,,,0.00,WUHU21623XXSP,2013-01-28 23:54:00,
2013-01-28 18:59:00,50.5,44.9,30.26,West,270,0.0,0.0,81,0.00,,,0.00,WUHU21623XXSP,2013-01-28 23:59:00,
2013-01-28 19:04:00,50.5,44.9,30.26,West,270,0.0,0.0,81,0.00,,,0.00,WUHU21623XXSP,2013-01-29 00:04:00,
2013-01-28 19:09:00,50.4,45.0,30.26,West,270,0.0,0.0,82,0.00,,,0.00,WUHU21623XXSP,2013-01-29 00:09:00,
2013-01-28 19:14:00,50.2,44.5,30.26,West,270,0.0,0.0,81,0.00,,,0.00,WUHU21623XXSP,2013-01-29 00:14:00,
2013-01-28 19:19:00,49.8,44.5,30.26,West,270,0.0,0.0,82,0.00,,,0.00,WUHU21623XXSP,2013-01-29 00:19:00,
2013-01-28 19:24:00,49.8,44.5,30.26,West,270,0.0,0.0,82,0.00,,,0.00,WUHU21623XXSP,2013-01-29 00:24:00,
2013-01-28 19:30:00,49.8,44.5,30.26,West,270,0.0,0.0,82,0.00,,,0.00,WUHU21623XXSP,2013-01-29 00:30:00,
2013-01-28 19:35:00,49.6,44.6,30.27,West,270,0.0,0.0,83,0.00,,,0.00,WUHU21623XXSP,2013-01-29 00:35:00,
2013-01-28 19:40:00,49.5,44.6,30.27,West,270,0.0,0.0,82,0.00,,,0.00,WUHU21623XXSP,2013-01-29 00:40:00,
2013-01-28 19:45:00,49.3,44.0,30.26,West,270,0.0,0.0,82,0.00,,,0.00,WUHU21623XXSP,2013-01-29 00:45:00,
2013-01-28 19:50:00,49.1,44.0,30.26,West,270,0.0,0.0,82,0.00,,,0.00,WUHU21623XXSP,2013-01-29 00:50:00,
2013-01-28 19:55:00,49.1,44.1,30.26,West,270,0.0,0.0,83,0.00,,,0.00,WUHU21623XXSP,2013-01-29 00:55:00,
2013-01-28 20:01:00,49.1,44.1,30.26,West,270,0.0,0.0,83,0.00,,,0.00,WUHU21623XXSP,2013-01-29 01:01:00,
2013-01-28 20:06:00,48.9,43.9,30.27,West,270,0.0,0.0,83,0.00,,,0.00,WUHU21623XXSP,2013-01-29 01:06:00,
2013-01-28 20:11:00,49.1,43.9,30.27,West,270,0.0,0.0,83,0.00,,,0.00,WUHU21623XXSP,2013-01-29 01:11:00,
2013-01-28 20:16:00,49.1,44.1,30.26,West,270,0.0,0.0,83,0.00,,,0.00,WUHU21623XXSP,2013-01-29 01:16:00,
2013-01-28 20:21:00,48.9,43.9,30.26,West,270,0.0,0.0,83,0.00,,,0.00,WUHU21623XXSP,2013-01-29 01:21:00,
2013-01-28 20:26:00,48.9,43.9,30.26,West,270,0.0,0.0,83,0.00,,,0.00,WUHU21623XXSP,2013-01-29 01:26:00,
2013-01-28 20:31:00,48.9,43.9,30.26,West,270,0.0,0.0,83,0.00,,,0.00,WUHU21623XXSP,2013-01-29 01:31:00,
2013-01-28 20:36:00,48.9,43.9,30.27,West,270,0.0,0.0,83,0.00,,,0.00,WUHU21623XXSP,2013-01-29 01:36:00,
2013-01-28 20:44:00,48.7,43.8,30.27,West,270,0.0,0.0,83,0.00,,,0.00,WUHU21623XXSP,2013-01-29 01:44:00,
2013-01-28 20:49:00,48.7,43.8,30.27,West,270,0.0,0.0,83,0.00,,,0.00,WUHU21623XXSP,2013-01-29 01:49:00,
2013-01-28 20:54:00,48.7,44.1,30.27,West,270,0.0,0.0,84,0.00,,,0.00,WUHU21623XXSP,2013-01-29 01:54:00,
2013-01-28 20:59:00,48.6,43.9,30.27,West,270,0.0,0.0,84,0.00,,,0.00,WUHU21623XXSP,2013-01-29 01:59:00,
2013-01-28 21:04:00,48.4,43.7,30.27,West,270,0.0,0.0,84,0.00,,,0.00,WUHU21623XXSP,2013-01-29 02:04:00,
2013-01-28 21:09:00,48.4,43.7,30.27,West,270,0.0,0.0,84,0.00,,,0.00,WUHU21623XXSP,2013-01-29 02:09:00,
2013-01-28 21:14:00,48.4,43.7,30.27,West,270,0.0,0.0,84,0.00,,,0.00,WUHU21623XXSP,2013-01-29 02:14:00,
2013-01-28 21:19:00,48.4,43.7,30.27,West,270,0.0,0.0,84,0.00,,,0.00,WUHU21623XXSP,2013-01-29 02:19:00,
2013-01-28 21:24:00,48.4,43.7,30.27,West,270,0.0,0.0,84,0.00,,,0.00,WUHU21623XXSP,2013-01-29 02:24:00,
2013-01-28 21:29:00,48.6,43.9,30.27,West,270,0.0,0.0,84,0.00,,,0.00,WUHU21623XXSP,2013-01-29 02:29:00,
2013-01-28 21:34:00,48.6,43.9,30.27,West,270,0.0,0.0,84,0.00,,,0.00,WUHU21623XXSP,2013-01-29 02:34:00,
2013-01-28 21:39:00,48.7,43.9,30.27,West,270,0.0,0.0,84,0.00,,,0.00,WUHU21623XXSP,2013-01-29 02:39:00,
2013-01-28 21:44:00,48.7,44.1,30.27,West,270,0.0,0.0,84,0.00,,,0.00,WUHU21623XXSP,2013-01-29 02:44:00,
2013-01-28 21:49:00,48.7,44.1,30.27,West,270,0.0,0.0,84,0.00,,,0.00,WUHU21623XXSP,2013-01-29 02:49:00,
2013-01-28 21:54:00,48.6,44.1,30.27,West,270,0.0,0.0,84,0.00,,,0.00,WUHU21623XXSP,2013-01-29 02:54:00,
2013-01-28 21:59:00,48.6,43.9,30.27,West,270,0.0,0.0,84,0.00,,,0.00,WUHU21623XXSP,2013-01-29 02:59:00,
2013-01-28 22:04:00,48.4,43.7,30.27,West,270,0.0,0.0,84,0.00,,,0.00,WUHU21623XXSP,2013-01-29 03:04:00,
2013-01-28 22:09:00,48.0,43.4,30.27,West,270,0.0,0.0,84,0.00,,,0.00,WUHU21623XXSP,2013-01-29 03:09:00,
2013-01-28 22:15:00,48.0,43.4,30.27,West,270,0.0,0.0,84,0.00,,,0.00,WUHU21623XXSP,2013-01-29 03:15:00,
2013-01-28 22:20:00,47.8,43.2,30.26,West,270,0.0,0.0,85,0.00,,,0.00,WUHU21623XXSP,2013-01-29 03:20:00,
2013-01-28 22:25:00,47.8,43.5,30.26,West,270,0.0,0.0,85,0.00,,,0.00,WUHU21623XXSP,2013-01-29 03:25:00,
2013-01-28 22:30:00,47.8,43.5,30.26,West,270,0.0,0.0,85,0.00,,,0.00,WUHU21623XXSP,2013-01-29 03:30:00,
2013-01-28 22:35:00,47.5,43.4,30.26,West,270,0.0,0.0,85,0.00,,,0.00,WUHU21623XXSP,2013-01-29 03:35:00,
2013-01-28 22:40:00,47.3,43.2,30.26,West,270,0.0,0.0,85,0.00,,,0.00,WUHU21623XXSP,2013-01-29 03:40:00,
2013-01-28 22:45:00,47.1,42.9,30.26,West,270,0.0,0.0,85,0.00,,,0.00,WUHU21623XXSP,2013-01-29 03:45:00,
2013-01-28 22:50:00,46.8,42.7,30.26,West,270,0.0,0.0,85,0.00,,,0.00,WUHU21623XXSP,2013-01-29 03:50:00,
2013-01-28 22:56:00,46.6,42.3,30.26,West,270,0.0,0.0,85,0.00,,,0.00,WUHU21623XXSP,2013-01-29 03:56:00,
2013-01-28 23:01:00,46.2,42.2,30.26,West,270,0.0,0.0,85,0.00,,,0.00,WUHU21623XXSP,2013-01-29 04:01:00,
2013-01-28 23:06:00,46.2,42.0,30.26,West,270,0.0,0.0,85,0.00,,,0.00,WUHU21623XXSP,2013-01-29 04:06:00,
2013-01-28 23:12:00,46.0,41.8,30.26,West,270,0.0,0.0,85,0.00,,,0.00,WUHU21623XXSP,2013-01-29 04:12:00,
2013-01-28 23:17:00,46.0,41.9,30.26,West,270,0.0,0.0,86,0.00,,,0.00,WUHU21623XXSP,2013-01-29 04:17:00,
2013-01-28 23:22:00,45.7,41.9,30.27,West,270,0.0,0.0,86,0.00,,,0.00,WUHU21623XXSP,2013-01-29 04:22:00,
2013-01-28 23:27:00,45.9,41.8,30.26,West,270,0.0,0.0,86,0.00,,,0.00,WUHU21623XXSP,2013-01-29 04:27:00,
2013-01-28 23:32:00,46.0,42.1,30.26,West,270,0.0,0.0,86,0.00,,,0.00,WUHU21623XXSP,2013-01-29 04:32:00,
2013-01-28 23:37:00,46.0,42.4,30.26,West,270,0.0,0.0,87,0.00,,,0.00,WUHU21623XXSP,2013-01-29 04:37:00,
2013-01-28 23:42:00,46.0,42.4,30.26,West,270,0.0,0.0,87,0.00,,,0.00,WUHU21623XXSP,2013-01-29 04:42:00,
2013-01-28 23:47:00,45.7,42.1,30.26,West,270,0.0,0.0,87,0.00,,,0.00,WUHU21623XXSP,2013-01-29 04:47:00,
2013-01-28 23:52:00,45.5,41.9,30.26,West,270,0.0,0.0,87,0.00,,,0.00,WUHU21623XXSP,2013-01-29 04:52:00,
2013-01-28 23:57:00,45.3,41.7,30.26,West,270,0.0,0.0,87,0.00,,,0.00,WUHU21623XXSP,2013-01-29 04:57:00,